sat.trackr.live / text

‹ back to catalog

ASTRA 1L

NORAD 31306 · 2007-016A

PAYLOAD ACTIVE UNKNOWN

§ Identity

Operator
Country
SES
Launch date
2007-05-04
Launch site
FRGUI
Launch vehicle
Mass (kg)
RCS (m²)
18.34

Purposes: comms

External: N2YO · Heavens-Above · Gunter

§ Orbital elements

Epoch: 2026-09-10T00:12:07.310016Z

Period
1,436.09 min
Inclination
1.5346°
Eccentricity
0.0004857
Mean motion
1.00271990 rev/d
Perigee alt
35,766.1 km
Apogee alt
35,807.0 km
Semi-major
42,164.7 km
B*
0.0000e+0
RAAN
80.7259°
Arg perigee
89.5188°
Mean anomaly
157.3504°
Rev number
4,583

§ Raw data

ASTRA 1L1 31306U 07016A   26253.00841794 -.00000204  00000+0  00000+0 0  99932 31306   1.5346  80.7259 0004857  89.5188 157.3504  1.00271990 45832

JSON: /api/v1/satellites/31306 · /tle

For live sub-satellite position, see the globe view (requires WebGL).

§ Visibility from observer

Set your observer location to see the next 7 days of passes ≥ 10°. The values pass through the URL so the page stays shareable.

No JS? Fill the form by hand. The geolocation button needs JavaScript.